Tracking 22094 objects as of 17-Jan-2021
HD Live streaming from Space Station
objects crossing your sky now

COSMOS 1806

Track COSMOS 1806 now!
COSMOS 1806 is classified as:


NORAD ID: 17213
Int'l Code: 1986-098A
Perigee: 6,464.1 km
Apogee: 33,889.8 km
Inclination: 68.7 °
Period: 717.5 minutes
Semi major axis: 26547 km
RCS: 14.9345 m2 (large)
Launch date: December 12, 1986
Source: Commonwealth of Independent States (former USSR) (CIS)
Launch site: PLESETSK MISSILE AND SPACE COMPLEX (PKMTR)
aabbcc
Your satellite tracking list
Your tracking list is empty




NASA's NSSDC Master Catalog

Two Line Element Set (TLE):
1 17213U 86098A   21016.55106935  .00000677  00000-0  00000-0 0  9999
2 17213  68.7088 226.0905 5165301 128.4182 222.9145  2.00704073249636
Source of the keplerian elements: AFSPC